| time (UTC) | temp C | wind direction | speed KPH | gust KPH | rain 1hr cm | rain 24hr cm | rain mn cm | humidity % | barometer mb |
| 20260901101535 | 21 | 0 | 0.0 | 0.0 | 0.00 | 0.00 | 0.00 | 96 | 1018.9 |
| 20260901100036 | 21 | 0 | 0.0 | 0.0 | 0.00 | 0.00 | 0.00 | 96 | 1018.8 |
| 20260901094537 | 21 | 0 | 0.0 | 0.0 | 0.00 | 0.00 | 0.00 | 96 | 1018.7 |
| 20260901093039 | 21 | 0 | 0.0 | 0.0 | 0.00 | 0.00 | 0.00 | 96 | 1018.6 |
| 20260901091535 | 21 | 0 | 0.0 | 0.0 | 0.00 | 0.00 | 0.00 | 96 | 1018.6 |
| 20260901090036 | 21 | 0 | 0.0 | 0.0 | 0.00 | 0.00 | 0.00 | 96 | 1018.7 |
| 20260901084532 | 21 | 0 | 0.0 | 0.0 | 0.00 | 0.00 | 0.00 | 96 | 1018.8 |
| 20260901083037 | 21 | 0 | 0.0 | 0.0 | 0.00 | 0.00 | 0.00 | 95 | 1018.7 |
| 20260901081533 | 21 | 0 | 0.0 | 0.0 | 0.00 | 0.00 | 0.00 | 96 | 1018.7 |
| 20260901080048 | 21 | 0 | 0.0 | 0.0 | 0.00 | 0.00 | 0.00 | 95 | 1018.5 |
| 20260901074533 | 21 | 0 | 0.0 | 0.0 | 0.00 | 0.00 | 0.00 | 95 | 1018.7 |
| 20260901073036 | 22 | 0 | 0.0 | 0.0 | 0.00 | 0.00 | 0.00 | 95 | 1018.6 |
| 20260901071537 | 22 | 0 | 0.0 | 0.0 | 0.00 | 0.00 | 0.00 | 95 | 1018.6 |
| 20260901070043 | 22 | 0 | 0.0 | 0.0 | 0.00 | 0.00 | 0.00 | 95 | 1018.6 |
| 20260901064532 | 22 | 0 | 0.0 | 0.0 | 0.00 | 0.00 | 0.00 | 95 | 1018.8 |
| 20260901063047 | 22 | 0 | 0.0 | 0.0 | 0.00 | 0.00 | 0.00 | 95 | 1018.8 |
| 20260901061536 | 22 | 0 | 0.0 | 0.0 | 0.00 | 0.00 | 0.00 | 94 | 1018.8 |
| 20260901060037 | 22 | 0 | 0.0 | 1.6 | 0.00 | 0.00 | 0.00 | 94 | 1018.9 |
| 20260901054537 | 22 | 0 | 0.0 | 0.0 | 0.00 | 0.00 | 0.00 | 94 | 1018.9 |
| 20260901053036 | 22 | 0 | 0.0 | 0.0 | 0.00 | 0.00 | 0.00 | 94 | 1019.1 |
| 20260901051535 | 22 | 0 | 0.0 | 0.0 | 0.00 | 0.00 | 0.00 | 94 | 1019.1 |
| 20260901050037 | 22 | 0 | 0.0 | 0.0 | 0.00 | 0.00 | 0.00 | 93 | 1019.1 |
| 20260901044537 | 22 | 0 | 0.0 | 0.0 | 0.00 | 0.00 | 0.00 | 93 | 1019.1 |
| 20260901043037 | 23 | 0 | 0.0 | 0.0 | 0.00 | 0.00 | 0.00 | 93 | 1018.8 |
| 20260901041537 | 23 | 0 | 0.0 | 0.0 | 0.00 | 0.00 | 0.00 | 93 | 1019.1 |
| 20260901040040 | 23 | 0 | 0.0 | 0.0 | 0.00 | 0.00 | 0.00 | 92 | 1019.1 |
| 20260901034540 | 23 | 0 | 0.0 | 0.0 | 0.00 | 0.00 | 0.00 | 91 | 1019.1 |
| 20260901033038 | 23 | 0 | 0.0 | 0.0 | 0.00 | 0.00 | 0.00 | 91 | 1019.2 |
| 20260901031537 | 23 | 0 | 0.0 | 0.0 | 0.00 | 0.00 | 0.00 | 90 | 1019.1 |
| 20260901030036 | 24 | 0 | 0.0 | 0.0 | 0.00 | 0.00 | 0.00 | 89 | 1019.0 |
| 20260901024534 | 24 | 0 | 0.0 | 0.0 | 0.00 | 0.00 | 0.00 | 88 | 1018.9 |
| 20260901023036 | 24 | 0 | 0.0 | 0.0 | 0.00 | 0.00 | 0.00 | 88 | 1018.9 |
| 20260901021534 | 25 | 0 | 0.0 | 0.0 | 0.00 | 0.00 | 0.00 | 86 | 1018.9 |
| 20260901020036 | 25 | 0 | 0.0 | 0.0 | 0.00 | 0.00 | 0.00 | 86 | 1018.8 |
| 20260901014537 | 25 | 0 | 0.0 | 0.0 | 0.00 | 0.00 | 0.00 | 85 | 1018.7 |
| 20260901013036 | 25 | 0 | 0.0 | 0.0 | 0.00 | 0.00 | 0.00 | 85 | 1018.5 |
| 20260901011539 | 26 | 0 | 0.0 | 0.0 | 0.00 | 0.00 | 0.00 | 82 | 1018.3 |
| 20260901010040 | 26 | 0 | 0.0 | 0.0 | 0.00 | 0.00 | 0.00 | 82 | 1018.1 |
| 20260901004537 | 26 | 0 | 0.0 | 0.0 | 0.00 | 0.00 | 0.00 | 80 | 1018.0 |
| 20260901003036 | 27 | 0 | 0.0 | 0.0 | 0.00 | 0.00 | 0.00 | 78 | 1017.8 |
| 20260901001534 | 27 | 0 | 0.0 | 0.0 | 0.00 | 0.00 | 0.00 | 75 | 1017.7 |
| 20260901000037 | 28 | 0 | 0.0 | 0.0 | 0.00 | 0.00 | 0.00 | 72 | 1017.5 |
| 20260831234537 | 29 | 0 | 0.0 | 0.0 | 0.00 | 0.00 | 0.00 | 70 | 1017.6 |
| 20260831233040 | 30 | 0 | 0.0 | 0.0 | 0.00 | 0.00 | 0.00 | 66 | 1017.6 |
| 20260831231535 | 31 | 0 | 0.0 | 1.6 | 0.00 | 0.00 | 0.00 | 62 | 1017.6 |
| 20260831230039 | 31 | 0 | 0.0 | 6.4 | 0.00 | 0.00 | 0.00 | 61 | 1017.8 |
| 20260831224535 | 31 | 33 | 0.0 | 4.8 | 0.00 | 0.00 | 0.00 | 59 | 1017.8 |
| 20260831223041 | 32 | 34 | 0.0 | 6.4 | 0.00 | 0.00 | 0.00 | 58 | 1017.8 |
| 20260831221535 | 32 | 33 | 1.6 | 9.7 | 0.00 | 0.00 | 0.00 | 58 | 1017.8 |
| 20260831220036 | 32 | 0 | 0.0 | 6.4 | 0.00 | 0.00 | 0.00 | 57 | 1017.8 |
| 20260831214547 | 32 | 31 | 0.0 | 3.2 | 0.00 | 0.00 | 0.00 | 58 | 1017.9 |
| 20260831213036 | 32 | 268 | 1.6 | 4.8 | 0.00 | 0.00 | 0.00 | 57 | 1018.0 |
| 20260831211535 | 32 | 24 | 0.0 | 4.8 | 0.00 | 0.00 | 0.00 | 53 | 1018.2 |
| 20260831210038 | 32 | 13 | 1.6 | 6.4 | 0.00 | 0.00 | 0.00 | 57 | 1018.2 |
| 20260831204534 | 33 | 0 | 0.0 | 6.4 | 0.00 | 0.00 | 0.00 | 56 | 1018.2 |
| 20260831203034 | 32 | 27 | 1.6 | 6.4 | 0.00 | 0.00 | 0.00 | 57 | 1018.3 |
| 20260831201537 | 32 | 0 | 0.0 | 4.8 | 0.00 | 0.00 | 0.00 | 57 | 1018.5 |
| 20260831200033 | 32 | 0 | 0.0 | 4.8 | 0.00 | 0.00 | 0.00 | 59 | 1018.6 |
| 20260831194536 | 32 | 63 | 3.2 | 6.4 | 0.00 | 0.00 | 0.00 | 57 | 1018.8 |
| 20260831193104 | 32 | 0 | 0.0 | 6.4 | 0.00 | 0.00 | 0.00 | 58 | 1018.8 |
| 20260831191532 | 32 | 44 | 1.6 | 4.8 | 0.00 | 0.00 | 0.00 | 56 | 1019.1 |
| 20260831190040 | 32 | 0 | 0.0 | 6.4 | 0.00 | 0.00 | 0.00 | 61 | 1019.5 |
| 20260831184535 | 32 | 17 | 0.0 | 6.4 | 0.00 | 0.00 | 0.00 | 58 | 1019.6 |
| 20260831183036 | 31 | 0 | 0.0 | 4.8 | 0.00 | 0.00 | 0.00 | 60 | 1019.8 |
| 20260831181546 | 31 | 26 | 1.6 | 4.8 | 0.00 | 0.00 | 0.00 | 62 | 1020.0 |
| 20260831180037 | 31 | 114 | 0.0 | 8.0 | 0.00 | 0.00 | 0.00 | 67 | 1020.1 |
| 20260831174536 | 31 | 60 | 1.6 | 8.0 | 0.00 | 0.00 | 0.00 | 64 | 1020.2 |
| 20260831173035 | 30 | 36 | 1.6 | 9.7 | 0.00 | 0.00 | 0.00 | 65 | 1020.5 |
| 20260831171535 | 30 | 0 | 1.6 | 6.4 | 0.00 | 0.00 | 0.00 | 68 | 1020.6 |
| 20260831170039 | 29 | 32 | 1.6 | 8.0 | 0.00 | 0.00 | 0.00 | 71 | 1020.8 |
| 20260831164545 | 29 | 19 | 0.0 | 8.0 | 0.00 | 0.00 | 0.00 | 71 | 1020.9 |
| 20260831163034 | 29 | 0 | 0.0 | 6.4 | 0.00 | 0.00 | 0.00 | 71 | 1021.0 |
| 20260831161554 | 28 | 0 | 0.0 | 6.4 | 0.00 | 0.00 | 0.00 | 74 | 1021.2 |
| 20260831160045 | 28 | 0 | 0.0 | 1.6 | 0.00 | 0.00 | 0.00 | 78 | 1021.2 |
| 20260831154610 | 28 | 38 | 1.6 | 4.8 | 0.00 | 0.00 | 0.00 | 77 | 1021.4 |
| 20260831153034 | 27 | 0 | 1.6 | 9.7 | 0.00 | 0.00 | 0.00 | 78 | 1021.4 |
| 20260831151533 | 27 | 0 | 0.0 | 3.2 | 0.00 | 0.00 | 0.00 | 81 | 1021.4 |
| 20260831150040 | 26 | 0 | 1.6 | 6.4 | 0.00 | 0.00 | 0.00 | 82 | 1021.1 |
| 20260831144535 | 26 | 36 | 1.6 | 4.8 | 0.00 | 0.00 | 0.00 | 85 | 1021.0 |
| 20260831143037 | 25 | 0 | 0.0 | 3.2 | 0.00 | 0.00 | 0.00 | 88 | 1020.9 |
| 20260831141535 | 25 | 0 | 0.0 | 4.8 | 0.00 | 0.00 | 0.00 | 91 | 1021.0 |
| 20260831140034 | 24 | 0 | 0.0 | 3.2 | 0.00 | 0.00 | 0.00 | 93 | 1021.1 |
| 20260831134538 | 23 | 0 | 0.0 | 0.0 | 0.00 | 0.00 | 0.00 | 95 | 1021.2 |
| 20260831133037 | 23 | 0 | 0.0 | 0.0 | 0.00 | 0.00 | 0.00 | 97 | 1021.3 |
| 20260831131553 | 22 | 0 | 0.0 | 0.0 | 0.00 | 0.00 | 0.00 | 97 | 1021.3 |
| 20260831130043 | 22 | 0 | 0.0 | 0.0 | 0.00 | 0.00 | 0.00 | 98 | 1021.3 |
| 20260831124540 | 22 | 0 | 0.0 | 0.0 | 0.00 | 0.00 | 0.00 | 97 | 1021.1 |
| 20260831123042 | 21 | 0 | 0.0 | 0.0 | 0.00 | 0.00 | 0.00 | 97 | 1021.2 |
| 20260831121535 | 21 | 0 | 0.0 | 0.0 | 0.00 | 0.00 | 0.00 | 98 | 1021.1 |
| 20260831120037 | 21 | 0 | 0.0 | 0.0 | 0.00 | 0.00 | 0.00 | 97 | 1021.0 |
| 20260831114535 | 21 | 0 | 0.0 | 0.0 | 0.00 | 0.00 | 0.00 | 97 | 1020.9 |
| 20260831113042 | 21 | 0 | 0.0 | 0.0 | 0.00 | 0.00 | 0.00 | 97 | 1020.6 |
| 20260831111542 | 21 | 0 | 0.0 | 0.0 | 0.00 | 0.00 | 0.00 | 96 | 1020.3 |
| 20260831110035 | 21 | 0 | 0.0 | 0.0 | 0.00 | 0.00 | 0.00 | 96 | 1020.3 |
| 20260831104537 | 21 | 0 | 0.0 | 0.0 | 0.00 | 0.00 | 0.00 | 96 | 1020.4 |
| 20260831103037 | 21 | 0 | 0.0 | 0.0 | 0.00 | 0.00 | 0.00 | 96 | 1020.2 |